Location: ????
(33.1659°N, 35.6604°E)
Time: 13:39:17
(UTC+00:00)

NOSS 0 Rocket - Pass Details

Date: 20 September 2019
Orbit: 935 x 955 km, 70.0° (Epoch: 18 October)

Event Time Altitude Azimuth Distance (km) Brightness Sun altitude
Rises 16:35:43 0° 345° (NNW) 3,618 7.3 -12.9°
Reaches altitude 10° 16:38:24 10° 353° (N) 2,673 6.5 -13.5°
Maximum altitude 16:44:15 42° 63° (ENE) 1,327 4.4 -14.7°
Enters shadow 16:48:10 20° 124° (ESE) 2,045 5.1 -15.5°
